This is the latest recevied weather packets stored in our database for station/object N5JXS. If no packets are shown the sender has not sent any weather packets the latest 1 day(s).
| Time | Temp. | Humidity | Pressure | Rain* | Wind** | Luminosity | Snow |
|---|---|---|---|---|---|---|---|
| 1777989587 | 1.11° C | 96% | 1016.4 hPa | 0 mm | 0.45 m/s, 122° | 9 W/m² | - |
| 1777989283 | 1.11° C | 96% | 1016.3 hPa | 0 mm | 0 m/s | 8 W/m² | - |
| 1777988980 | 1.67° C | 96% | 1016.1 hPa | 0 mm | 0.89 m/s, 97° | 10 W/m² | - |
| 1777988676 | 1.67° C | 96% | 1016.3 hPa | 0 mm | 0.45 m/s, 97° | 6 W/m² | - |
| 1777988373 | 1.67° C | 96% | 1016.1 hPa | 0 mm | 0.45 m/s, 66° | 7 W/m² | - |
| 1777988070 | 1.67° C | 96% | 1016.1 hPa | 0 mm | 0.45 m/s, 148° | 9 W/m² | - |
| 1777987766 | 1.67° C | 96% | 1016 hPa | 0 mm | 0.89 m/s, 43° | 9 W/m² | - |
| 1777987463 | 1.67° C | 96% | 1015.8 hPa | 0 mm | 0.89 m/s, 45° | 10 W/m² | - |
| 1777987160 | 1.67° C | 96% | 1015.6 hPa | 0 mm | 0.89 m/s, 80° | 6 W/m² | - |
| 1777986857 | 1.67° C | 96% | 1015.5 hPa | 0 mm | 0 m/s | 10 W/m² | - |
| 1777986555 | 2.22° C | 96% | 1015.9 hPa | 0 mm | 0.45 m/s, 52° | 4 W/m² | - |
| 1777986253 | 2.22° C | 96% | 1015.8 hPa | 0 mm | 0.45 m/s, 61° | 3 W/m² | - |
| 1777985949 | 2.78° C | 96% | 1015.8 hPa | 0 mm | 0.45 m/s, 52° | 3 W/m² | - |
| 1777985647 | 2.78° C | 96% | 1015.5 hPa | 0 mm | 0.89 m/s, 114° | 6 W/m² | - |
| 1777985343 | 3.33° C | 96% | 1015.5 hPa | 0 mm | 0.45 m/s, 270° | 3 W/m² | - |
| 1777985041 | 3.33° C | 97% | 1015.4 hPa | 0 mm | 0 m/s | 2 W/m² | - |
| 1777984736 | 3.33° C | 97% | 1015.4 hPa | 0 mm | 0 m/s | 4 W/m² | - |
| 1777984433 | 3.33° C | 96% | 1015.3 hPa | 0 mm | 0 m/s | 4 W/m² | - |
| 1777984129 | 3.33° C | 97% | 1015.3 hPa | 0 mm | 0 m/s | 3 W/m² | - |
| 1777983827 | 3.33° C | 97% | 1014.9 hPa | 0 mm | 0 m/s | 2 W/m² | - |
| 1777983523 | 3.33° C | 97% | 1014.6 hPa | 0 mm | 0 m/s | 3 W/m² | - |
| 1777983220 | 2.78° C | 97% | 1014.8 hPa | 0 mm | 0 m/s | 1 W/m² | - |
| 1777982916 | 3.33° C | 97% | 1014.9 hPa | 0 mm | 0.45 m/s, 52° | 0 W/m² | - |
| 1777982612 | 2.78° C | 97% | 1015 hPa | 0 mm | 0 m/s | 0 W/m² | - |
| 1777982311 | 3.33° C | 97% | 1014.9 hPa | 0 mm | 0 m/s | 0 W/m² | - |
* Rain latest hour (hover to see other rain measurements)
** Current wind speed in m/s (hover to see current wind gust speed)